Laconia, NH

6:34 PM EST on November 14, 2019 (GMT -0500)
Laconia Municipal

Weather History for KLCI - September, 2019

Change the Weather History Date:

Tuesday, September 10, 2019

  Actual Average Record
Temperature  
Mean Temperature 57 °F -  
Max Temperature 69 °F 74 °F 91 °F (2002)
Min Temperature 46 °F 52 °F 42 °F (2003)
Degree Days  
Heating Degree Days 8    
Growing Degree Days 7 (Base 50)    
Moisture  
Dew Point 53 °F    
Average Humidity 83    
Maximum Humidity 100    
Minimum Humidity 64    
Precipitation  
Precipitation 0.00 in - - ()
Sea Level Pressure  
Sea Level Pressure 30.34 in    
Wind  
Wind Speed 3 mph ()    
Max Wind Speed 12 mph    
Max Gust Speed -    
Visibility 9.7 miles    
Events Rain    
Averages and records for this station are not official NWS values.
T = Trace of Precipitation, MM = Missing Value Source: Averaged Metar Reports

Daily Weather History Graph

Daily Weather History Graph

Search for Another Location

Airport or City:

Astronomy

Sep. 10, 2019 Rise Set
Actual Time 6:19 AM EDT 7:05 PM EDT
Civil Twilight 5:50 AM EDT 7:34 PM EDT
Nautical Twilight 5:15 AM EDT 8:08 PM EDT
Astronomical Twilight 4:39 AM EDT 8:44 PM EDT
Moon 5:47 PM EDT (9/10) 2:34 AM EDT (9/10)
Length of Visible Light 13h 44m
Length of Day
12h 46m
Waxing Gibbous, 89% of the Moon is Illuminated
Sep 10
Waxing Gibbous
Sep 14
Full
Sep 21
Last Quarter
Sep 28
New
Oct 5
First Quarter

Hourly Weather History & Observations

Time (EDT) Temp. Windchill Dew Point Humidity Pressure Visibility Wind Dir Wind Speed Gust Speed Precip Events Conditions
12:56 AM 48.9 °F - 48.0 °F 97% 30.36 in 10.0 mi Calm Calm - N/A   Clear
1:56 AM 46.9 °F - 46.0 °F 97% 30.36 in 8.0 mi Calm Calm - N/A   Clear
2:56 AM 48.0 °F - 46.9 °F 96% 30.37 in 10.0 mi Calm Calm - N/A   Clear
3:56 AM 46.9 °F - 46.0 °F 97% 30.38 in 10.0 mi Calm Calm - N/A   Partly Cloudy
4:56 AM 46.0 °F - 45.0 °F 96% 30.38 in 10.0 mi Calm Calm - N/A   Clear
5:56 AM 46.0 °F 44.8 °F 45.0 °F 96% 30.39 in 5.0 mi West 3.5 mph - N/A   Partly Cloudy
6:32 AM 46.4 °F - 46.4 °F 100% 30.40 in 10.0 mi Calm Calm - N/A   Mostly Cloudy
6:56 AM 48.0 °F - 46.0 °F 93% 30.42 in 10.0 mi Calm Calm - N/A   Overcast
7:56 AM 53.1 °F - 51.1 °F 93% 30.42 in 10.0 mi Calm Calm - N/A   Overcast
8:56 AM 57.0 °F - 53.1 °F 87% 30.42 in 9.0 mi NE 3.5 mph - N/A   Scattered Clouds
9:56 AM 60.1 °F - 48.0 °F 64% 30.42 in 10.0 mi ENE 9.2 mph - N/A   Mostly Cloudy
10:56 AM 62.1 °F - 50.0 °F 65% 30.41 in 10.0 mi Calm Calm - N/A   Scattered Clouds
11:56 AM 63.0 °F - 52.0 °F 67% 30.39 in 10.0 mi NNE 4.6 mph - N/A   Partly Cloudy
12:56 PM 64.0 °F - 53.1 °F 67% 30.37 in 10.0 mi ENE 3.5 mph - N/A   Overcast
1:56 PM 66.0 °F - 55.0 °F 68% 30.34 in 10.0 mi South 3.5 mph - N/A   Overcast
2:16 PM 66.2 °F - 55.4 °F 68% 30.34 in 10.0 mi SSE 5.8 mph - N/A   Overcast
2:56 PM 66.0 °F - 57.0 °F 73% 30.34 in 10.0 mi SSW 11.5 mph - N/A   Overcast
3:56 PM 66.9 °F - 57.9 °F 73% 30.31 in 10.0 mi South 9.2 mph - N/A   Mostly Cloudy
4:56 PM 68.0 °F - 59.0 °F 73% 30.30 in 10.0 mi SSE 5.8 mph - N/A   Overcast
5:56 PM 66.0 °F - 59.0 °F 78% 30.28 in 10.0 mi South 8.1 mph - N/A   Overcast
6:56 PM 66.0 °F - 59.0 °F 78% 30.28 in 10.0 mi South 4.6 mph - N/A   Overcast
7:56 PM 64.9 °F - 60.1 °F 84% 30.27 in 10.0 mi SW 6.9 mph - N/A   Overcast
8:56 PM 66.0 °F - 60.1 °F 81% 30.26 in 10.0 mi SSW 10.4 mph - N/A   Overcast
9:56 PM 64.9 °F - 60.1 °F 84% 30.21 in 10.0 mi SSW 6.9 mph - N/A   Overcast
10:56 PM 64.9 °F - 60.1 °F 84% 30.20 in 10.0 mi SW 10.4 mph - 0.00 in Rain Light Rain
11:56 PM 64.9 °F - 61.0 °F 87% 30.17 in 10.0 mi SW 6.9 mph - 0.00 in Rain Light Rain